Powrót do katalogu

FENGYUN 1C DEB

AktywnySSO
NORAD 37439·DEBRIS·🇨🇳 China

Wystrzelony May 10, 1999 z Taiyuan Satellite Launch Center

Loading…

Następne Przeloty (najbliższe 24 godziny)

TLE

Starzejące sięSource: Space-Track

Epoka: Sep 8, 2026, 12:12 UTC

1 37439U 99025EHH 26251.50853392  .00001926  00000-0  92158-3 0  9998
2 37439  99.0131 344.4028 0057960  54.6917  10.2283 14.19434125650871

Śledź FENGYUN 1C DEB w czasie rzeczywistym z AllMySat

Download on the App Store